Location: Asheville, NC
(35.6000°N, 82.5500°W)
Time: 02:40:44
(UTC-04:00)

Hubble Space Telescope - Pass Details

Date: 13 March 2018
Orbit: 537 x 541 km, 28.5° (Epoch: 20 June)

Event Time Altitude Azimuth Distance (km) Brightness Sun altitude
Rises 21:48:23 0° 254° (WSW) 2,674 5.2 -27.3°
Reaches altitude 10° 21:50:50 10° 244° (WSW) 1,782 3.9 -27.8°
Enters shadow 21:52:22 19° 229° (SW) 1,303 3.0 -28.1°
